星链-1848 (STARLINK-1848 )

导读 | 豆包AI

STARLINK-1848是美国太空探索技术公司星链(Starlink)卫星互联网星座的第1848颗卫星,于2020年10月24日发射入轨,属于星链低轨互联网星座组网卫星,主要服务于全球范围高速互联网接入,尤其为偏远地区、航海航空等场景提供网络覆盖。作为Starlink星座的早期组网卫星,它承担着完善星座覆盖密度的任务,推进了星链星座运营布局。

Basic Information
目录编号:
46740
目录名称:
STARLINK-1848
国际标识:
2020-074B
轨道中心:
EARTH
卫星名称:
星链-1848
卫星全名:
星链-1848 (STARLINK-1848 )
卫星状态:
已陨落 最后检测时间 2026-03-04
发射日期:
2020-10-24 UTC
国别 :
美国 (US)
星等 :
--
Orbit Information
数据来源 国际轨道数据
星历时间: 2026-03-04T10:32:57+0800
轨道信息已过期59天
半长轴: 6540.864km
偏心率: 0.0006491
轨道倾角: 53.020°
近地点辐角 257.306°
升交点赤经 279.159°
平近点角 102.726°
近地点: 158.481km
远地点: 166.973km
周期: 87.743分钟
每日圈数: 16.41157
Detailed Information
固有亮度:
5
最大亮度:
2.5
卫星平台:
Starlink V1.0
覆盖范围:
全球
运营商:
太空探索技术公司
运营商所在国:
美国
制造商(研发单位):
太空探索技术公司
制造商所在国:
美国
使用方式:
暂无
Satellite Introduction
星链(Starlink)计划是由太空探索技术公司(SpaceX)提出的一个巨型低轨卫星互联网星座项目,计划在2019年至2024年间在太空搭建由约1.2万颗卫星组成的“星链”网络,其中1584颗将部署在地球上空550千米处的近地轨道,并从2020年开始工作。该卫星仍在工作。